TimeMDT,TemperatureF,Dew PointF,Humidity,Sea Level PressureIn,VisibilityMPH,Wind Direction,Wind SpeedMPH,Gust SpeedMPH,PrecipitationIn,Events,Conditions,WindDirDegrees,DateUTC
12:48 AM,54.0,37.9,55,29.99,-9999.0,North,15.0,-,N/A,,Unknown,10,2013-05-08 06:48:00
1:48 AM,51.1,37.0,59,30.01,-9999.0,North,11.5,-,N/A,,Unknown,10,2013-05-08 07:48:00
2:48 AM,48.0,37.0,66,30.01,-9999.0,North,8.1,-,N/A,,Unknown,10,2013-05-08 08:48:00
3:48 AM,45.0,36.0,71,30.04,-9999.0,WNW,5.8,-,N/A,,Unknown,300,2013-05-08 09:48:00
4:48 AM,44.1,36.0,73,30.06,-9999.0,WNW,6.9,-,N/A,,Unknown,300,2013-05-08 10:48:00
5:48 AM,42.1,35.1,76,30.08,-9999.0,NNW,9.2,-,N/A,,Unknown,330,2013-05-08 11:48:00
6:48 AM,46.0,36.0,68,30.10,-9999.0,NNW,6.9,-,N/A,,Unknown,330,2013-05-08 12:48:00
7:48 AM,50.0,36.0,59,30.12,-9999.0,North,13.8,-,N/A,,Unknown,10,2013-05-08 13:48:00
8:48 AM,53.1,37.0,55,30.15,-9999.0,North,13.8,-,N/A,,Unknown,10,2013-05-08 14:48:00
9:48 AM,55.9,37.9,51,30.14,-9999.0,NNE,12.7,-,N/A,,Unknown,20,2013-05-08 15:48:00
10:48 AM,57.9,39.0,49,30.15,-9999.0,North,6.9,16.1,N/A,,Unknown,10,2013-05-08 16:48:00
11:48 AM,60.1,39.0,46,30.15,-9999.0,North,8.1,19.6,N/A,,Unknown,10,2013-05-08 17:48:00
12:48 PM,63.0,39.0,41,30.15,-9999.0,NE,13.8,19.6,N/A,,Unknown,40,2013-05-08 18:48:00
1:48 PM,64.0,37.9,38,30.16,-9999.0,NE,13.8,19.6,N/A,,Unknown,50,2013-05-08 19:48:00
2:48 PM,64.9,37.0,36,30.15,-9999.0,NNE,8.1,-,N/A,,Unknown,30,2013-05-08 20:48:00
3:48 PM,64.0,36.0,35,30.15,-9999.0,NE,12.7,19.6,N/A,,Unknown,50,2013-05-08 21:48:00
4:48 PM,64.9,35.1,33,30.14,-9999.0,East,12.7,18.4,N/A,,Unknown,90,2013-05-08 22:48:00
5:48 PM,64.0,35.1,34,30.15,-9999.0,ENE,8.1,-,N/A,,Unknown,60,2013-05-08 23:48:00
6:48 PM,64.0,35.1,34,30.13,-9999.0,ENE,10.4,-,N/A,,Unknown,60,2013-05-09 00:48:00
7:48 PM,62.1,35.1,37,30.13,-9999.0,NE,9.2,-,N/A,,Unknown,50,2013-05-09 01:48:00
8:48 PM,51.1,35.1,54,30.15,-9999.0,NE,8.1,-,N/A,,Unknown,40,2013-05-09 02:48:00
9:48 PM,50.0,35.1,57,30.17,-9999.0,NE,9.2,-,N/A,,Unknown,40,2013-05-09 03:48:00
10:48 PM,51.1,34.0,52,30.17,-9999.0,NE,9.2,-,N/A,,Unknown,40,2013-05-09 04:48:00
11:48 PM,46.9,33.1,59,30.18,-9999.0,East,4.6,-,N/A,,Unknown,100,2013-05-09 05:48:00